Flag for U.S.A. Weather past 2 weeks in Chesapeake, Virginia, U.S.A.

Now
66 °F

Clear.


Feels Like: 66 °F
Forecast: 66 / 87 °F
Wind: No wind

Location: Chesapeake Municipal Airport

Current Time: Aug 28, 2014 at 2:13:51 AM

Latest Report: Aug 28, 2014 at 1:55 AM


Visibility: 10 mi

Pressure: 29.91 "Hg

Humidity: 94%

Dew point: 64 °F

Location of ChesapeakeLocation

Historic Weather in Chesapeake — Graph

°F

Chesapeake temperature yesterday

Maximum temperature yesterday: 84 °F (at 4:55 PM)
Minimum temperature yesterday: 61 °F (at 1:15 AM)
Average temperature yesterday: 72 °F

Past Weeks' High & Low Weather Summary

 TemperatureHumidityPressure
High91 °F (Aug 21, 2:55 PM)100% (Aug 13, 5:35 AM)30.14 "Hg (Aug 13, 5:35 AM)
Low57 °F (Aug 26, 5:15 AM)30% (Aug 14, 12:15 PM)29.76 "Hg (Aug 13, 1:55 AM)
Average75 °F76%29.97 "Hg
* Reported Aug 13 12:15 AM — Aug 28 12:55 AM, Chesapeake, Weather by CustomWeather, © 2014

Note: Actual official high and low records may vary slightly from our data, if they occured in-between our weather recording intervals... More about our weather records

Advertising

Chesapeake weather history for previous 24 hours

 ConditionsComfort  
Time TempWeatherWind HumidityBarometerVisibility
12:55 AM
Aug 28
64 °FClear.No wind94%29.92 "Hg10 mi
12:35 AM64 °FClear.No wind94%29.93 "Hg7 mi
12:15 AM64 °FClear.No wind94%29.94 "Hg10 mi
11:55 PM
Aug 27
64 °FClear.No wind94%29.94 "Hg10 mi
11:35 PM64 °FClear.No wind94%29.94 "Hg10 mi
11:15 PM64 °FClear.No wind94%29.95 "Hg10 mi
10:55 PM64 °FClear.No wind94%29.94 "Hg10 mi
10:35 PM64 °FClear.No wind94%29.94 "Hg10 mi
10:15 PM66 °FClear.No wind88%29.95 "Hg10 mi
9:55 PM64 °FClear.No wind94%29.94 "Hg7 mi
9:35 PM66 °FClear.No wind94%29.95 "Hg7 mi
9:15 PM66 °FClear.No wind94%29.95 "Hg7 mi
8:55 PM66 °FClear.No wind88%29.94 "Hg10 mi
8:35 PM70 °FSunny.No wind83%29.94 "Hg7 mi
8:15 PM72 °FSunny.No wind78%29.94 "Hg7 mi
7:55 PM73 °FSunny.No wind74%29.94 "Hg10 mi
7:35 PM79 °FSunny.No wind54%29.95 "Hg7 mi
7:15 PM81 °FSunny.No wind51%29.95 "Hg10 mi
6:55 PM81 °FSunny.No wind51%29.95 "Hg7 mi
6:35 PM82 °FSunny.3 mph48%29.95 "Hg7 mi
6:15 PM82 °FSunny.3 mph48%29.95 "Hg7 mi
5:55 PM84 °FSunny.5 mph45%29.95 "Hg7 mi
5:35 PM84 °FSunny.6 mph48%29.95 "Hg10 mi
5:15 PM82 °FSunny.5 mph55%29.95 "Hg7 mi
4:55 PM84 °FSunny.5 mph48%29.95 "Hg7 mi
4:15 PM82 °FScattered clouds.9 mph55%29.96 "Hg10 mi
3:55 PM82 °FScattered clouds.5 mph55%29.96 "Hg7 mi
3:15 PM82 °FRain. Scattered clouds.7 mph55%29.98 "Hg10 mi
2:55 PM82 °FScattered clouds.5 mph55%29.98 "Hg7 mi
1:55 PM82 °FScattered clouds.9 mph58%30.00 "Hg7 mi
1:35 PM82 °FScattered clouds.8 mph58%30.01 "Hg10 mi
1:15 PM82 °FPartly sunny.7 mph58%30.02 "Hg7 mi
12:15 PM82 °FScattered clouds.7 mph62%30.03 "Hg7 mi
11:55 AM82 °FScattered clouds.10 mph58%30.04 "Hg7 mi
10:55 AM79 °FOvercast.7 mph70%30.06 "Hg10 mi
10:15 AM79 °FPartly sunny.5 mph70%30.06 "Hg10 mi
9:55 AM77 °FPartly sunny.10 mph74%30.05 "Hg7 mi
9:35 AM75 °FOvercast.8 mph78%30.05 "Hg10 mi
9:15 AM77 °FLight rain. Partly sunny.9 mph79%30.05 "Hg10 mi
8:55 AM75 °FPartly sunny.12 mph78%30.05 "Hg5 mi
8:35 AM75 °FLight rain. Overcast.7 mph83%30.05 "Hg10 mi
8:15 AM73 °FLight rain. Partly sunny.5 mph89%30.05 "Hg7 mi
7:55 AM72 °FFog.No wind94%30.05 "Hg5 mi
7:35 AM68 °FFog.No wind94%30.05 "Hg5 mi
7:15 AM66 °FFog.No wind94%30.05 "Hg5 mi
6:35 AM63 °FFog.No wind100%30.03 "Hg3 mi
6:15 AM64 °FFog.No wind94%30.03 "Hg5 mi
5:55 AM64 °FClear.No wind100%30.03 "Hg7 mi
5:35 AM64 °FFog.No wind94%30.03 "Hg5 mi
5:15 AM63 °FPassing clouds.No wind94%30.03 "Hg7 mi
4:35 AM63 °FFog.No wind100%30.03 "Hg5 mi
4:15 AM63 °FFog.No wind94%30.03 "Hg5 mi
3:55 AM63 °FFog.No wind94%30.03 "Hg1 mi
3:35 AM63 °FFog.No wind100%30.03 "Hg5 mi
3:15 AM63 °FFog.No wind100%30.03 "Hg5 mi
2:55 AM63 °FFog.No wind94%30.03 "Hg4 mi
2:35 AM61 °FFog.No wind100%30.04 "Hg5 mi
2:15 AM61 °FPassing clouds.No wind100%30.04 "Hg7 mi
Weather by CustomWeather, © 2014

See weather overviewHow to use our weather pages